LPNTSAT-002

导读

LPNTSAT-002(NORAD编号68409)是一颗低地球轨道(LEO)卫星,隶属于低轨定位导航授时(LEO-PNT)相关星座规划,聚焦增强弹性定位、导航与授时服务能力。作为低轨PNT体系的试验卫星之一,它依托低轨道优势,可在全球导航卫星系统(GNSS)拒止环境下提供冗余备份的PNT服务,补充现有天基导航体系的覆盖盲区与抗干扰能力。该卫星已被北美防空司令部(NORAD)纳入空间目标编目,纳入全球卫星跟踪观测体系,其部署验证了低成本小卫星承载导航载荷的技术可行性,推动低轨导航星座的发展与空间资源高效利用。

Basic Information
目录编号:
68409
目录名称:
LPNTSAT-002
国际标识:
2026-065B
轨道中心:
EARTH
卫星名称:
LPNTSAT-002
卫星全名:
LPNTSAT-002
卫星状态:
在轨 (已飞行161 天)
发射日期:
2026-03-28 UTC
国别 :
(ESA)
星等 :
--
Orbit Information
数据来源 国际轨道数据
星历时间: 2026-09-05T14:12:12+0800
11小时前
查看轨道信息
半长轴: 6883.633km
偏心率: 0.0015448
轨道倾角: 97.388°
近地点辐角 80.792°
升交点赤经 127.174°
平近点角 279.506°
近地点: 494.862km
远地点: 516.13km
周期: 94.730分钟
每日圈数: 15.201142
Detailed Information
使用方式:
暂无
2D Orbit Map
3D Orbit Map
Orbit Altitude Analysis Chart
Orbit Inclination Analysis Chart
Orbit Comprehensive Analysis Chart
View Comprehensive Chart
Conjunction Data List
Event ID Objects TCA Miss Dist (km) Collision Risk Probability Collision Risk Index (CRI) Action
CDM_260906-190806-673106-840922
2026-09-06T
19:08:35+0000
0.578 km
远距离
1.459144E-4 高风险 0.78
CDM_260901-000606-669906-840924
2026-09-01T
00:06:53+0000
2.672 km
极远距离
1.58266E-6 低风险 0.39
CDM_260907-160004-380906-840921
2026-09-07T
16:00:06+0000
2.917 km
极远距离
1.39843E-6 低风险 0.38